Total_Precipitation_Accumulation
0.98 0.90 0.91 1.06 1.02 1.03 1.17 1.27 1.12 1.04 1.04 0.99 0.94 0.90 0.86 0.79 0.79 0.76 0.94 1.05 1.20 1.57 1.98 1.95 1.63 1.25 1.22 1.46 1.50 1.53 1.54 1.64 1.91 2.04 1.93 1.83 1.87 1.90 1.66 1.38 1.15 1.02 0.94
1.03 1.05 0.95 1.03 1.18 1.21 1.19 1.19 1.16 1.06 1.02 1.05 1.00 1.02 1.00 0.85 0.82 0.84 0.94 0.94 0.98 1.19 1.66 1.97 1.79 1.51 1.46 1.56 1.51 1.55 1.52 1.55 1.76 1.91 2.00 1.87 1.93 2.03 1.69 1.34 1.22 1.13 1.10
1.04 1.06 0.94 0.98 1.13 1.32 1.29 1.22 1.15 1.12 0.97 0.93 1.01 1.08 1.09 0.99 0.97 1.02 0.98 0.95 0.87 0.98 1.31 1.78 1.89 1.71 1.69 1.83 1.63 1.52 1.44 1.42 1.46 1.67 1.91 1.88 1.82 1.87 1.61 1.34 1.17 1.18 1.22
1.05 1.13 1.05 1.01 1.16 1.35 1.50 1.54 1.36 1.26 1.14 1.06 1.13 1.14 1.10 1.16 1.14 1.08 1.04 1.07 1.05 0.93 1.02 1.27 1.55 1.84 1.91 2.00 1.79 1.63 1.46 1.29 1.24 1.36 1.52 1.65 1.67 1.64 1.58 1.47 1.33 1.26 1.29
0.97 1.18 1.26 1.22 1.25 1.41 1.46 1.47 1.46 1.33 1.31 1.26 1.15 1.11 1.07 1.16 1.24 1.06 1.03 1.09 1.20 1.15 1.06 0.91 0.98 1.20 1.53 2.02 2.10 1.78 1.61 1.40 1.23 1.25 1.31 1.35 1.46 1.49 1.53 1.49 1.35 1.26 1.33
1.19 1.34 1.43 1.43 1.44 1.49 1.47 1.58 1.75 1.55 1.37 1.38 1.26 1.14 1.08 1.09 1.14 1.13 1.13 1.12 1.21 1.20 1.12 0.96 0.89 0.73 0.92 1.48 1.97 1.82 1.78 1.64 1.35 1.24 1.29 1.24 1.25 1.34 1.33 1.40 1.42 1.31 1.32
1.42 1.55 1.66 1.69 1.62 1.53 1.58 1.75 2.10 1.98 1.62 1.46 1.49 1.37 1.21 1.15 1.19 1.15 1.18 1.26 1.20 1.17 1.23 1.14 0.96 0.87 0.75 0.79 1.22 1.67 1.75 1.81 1.64 1.42 1.32 1.29 1.21 1.24 1.20 1.19 1.36 1.37 1.32
1.51 1.59 1.80 1.91 1.84 1.81 1.92 1.94 2.16 2.29 2.03 1.81 1.80 1.97 1.75 1.55 1.23 1.00 1.05 1.11 1.13 1.21 1.22 1.26 1.15 1.00 0.95 0.85 0.71 1.08 1.43 1.64 1.77 1.64 1.51 1.41 1.27 1.19 1.17 1.14 1.20 1.44 1.41
1.70 1.68 1.80 2.01 1.97 1.92 1.96 2.14 2.42 2.68 2.58 2.33 2.13 2.24 1.99 1.76 1.64 1.16 0.94 1.00 1.08 1.20 1.24 1.33 1.32 1.19 1.13 1.14 0.92 0.77 0.95 1.26 1.69 1.81 1.74 1.55 1.40 1.28 1.26 1.23 1.19 1.37 1.60
1.64 1.63 1.75 1.96 2.10 2.17 2.22 2.28 2.29 2.62 2.81 2.64 2.52 2.22 1.95 1.81 1.91 1.67 1.20 0.98 1.03 1.08 1.15 1.19 1.30 1.33 1.29 1.25 1.14 0.77 0.70 0.92 1.49 2.04 2.11 1.82 1.56 1.41 1.33 1.34 1.28 1.31 1.48
1.73 1.64 1.68 1.76 1.81 1.88 2.00 2.13 2.21 2.42 2.56 2.69 2.67 2.48 2.25 2.09 1.67 1.65 1.65 1.40 1.15 0.95 0.99 1.12 1.31 1.36 1.35 1.28 1.29 0.93 0.71 0.60 0.86 1.50 1.99 2.12 1.94 1.73 1.56 1.41 1.32 1.31 1.33
1.71 1.62 1.56 1.65 1.68 1.69 1.81 1.93 2.03 2.25 2.42 2.53 2.59 2.48 2.35 2.28 2.03 1.79 1.61 1.58 1.47 1.17 0.99 1.01 1.11 1.22 1.29 1.28 1.17 1.11 0.87 0.62 0.58 0.84 1.25 1.72 1.96 1.92 1.82 1.66 1.54 1.43 1.43
1.33 1.33 1.25 1.31 1.45 1.50 1.68 1.75 1.69 1.74 1.91 2.11 2.29 2.32 2.29 2.19 2.17 2.09 1.93 1.77 1.57 1.24 1.12 1.00 0.96 1.11 1.17 1.28 1.27 1.33 0.96 0.74 0.63 0.64 0.79 1.06 1.36 1.57 1.73 1.81 1.87 1.84 1.81
1.02 0.98 0.98 1.00 1.07 1.15 1.37 1.57 1.54 1.56 1.63 1.71 1.81 2.06 2.15 2.11 2.14 1.98 1.85 1.88 1.68 1.42 1.23 1.00 0.88 0.92 0.98 1.10 1.41 1.49 1.00 0.86 0.71 0.69 0.73 0.76 0.88 1.02 1.27 1.56 1.75 1.91 2.00
0.79 0.76 0.79 0.88 0.93 0.93 1.03 1.16 1.34 1.42 1.48 1.56 1.58 1.74 1.83 1.89 1.89 1.75 1.77 1.83 1.71 1.45 1.29 1.14 1.03 0.95 0.93 0.98 1.27 1.20 1.03 0.98 0.88 0.81 0.76 0.73 0.73 0.75 0.88 1.06 1.23 1.39 1.49
0.71 0.70 0.68 0.69 0.75 0.77 0.87 0.98 1.04 1.15 1.22 1.38 1.55 1.68 1.69 1.73 1.77 1.68 1.66 1.79 1.78 1.54 1.31 1.13 1.00 0.94 1.04 1.01 1.19 1.06 1.13 1.22 0.95 0.82 0.77 0.78 0.71 0.64 0.59 0.65 0.78 0.90 0.96
0.55 0.56 0.59 0.65 0.65 0.67 0.69 0.70 0.75 0.81 0.89 0.99 1.07 1.20 1.40 1.58 1.64 1.64 1.69 1.76 1.79 1.65 1.39 1.25 1.03 1.01 1.15 1.16 1.15 1.08 1.15 1.21 0.99 0.87 0.74 0.70 0.70 0.65 0.63 0.58 0.60 0.65 0.72
0.47 0.49 0.54 0.58 0.58 0.64 0.66 0.66 0.66 0.68 0.77 0.85 0.86 0.88 0.98 1.20 1.36 1.50 1.58 1.61 1.67 1.66 1.52 1.48 1.36 1.12 1.08 1.15 1.28 1.35 1.27 1.24 1.20 1.17 1.02 0.82 0.73 0.69 0.67 0.63 0.57 0.54 0.55
0.59 0.62 0.61 0.64 0.62 0.64 0.64 0.65 0.68 0.70 0.72 0.77 0.80 0.82 0.88 0.97 1.14 1.23 1.34 1.45 1.53 1.65 1.64 1.47 1.48 1.40 1.22 1.20 1.26 1.34 1.39 1.47 1.36 1.30 1.35 1.17 0.95 0.84 0.78 0.72 0.64 0.59 0.58
0.51 0.54 0.63 0.71 0.79 0.83 0.82 0.78 0.77 0.75 0.70 0.72 0.79 0.86 0.88 0.88 1.00 1.21 1.34 1.41 1.45 1.56 1.69 1.63 1.55 1.51 1.36 1.29 1.29 1.32 1.45 1.55 1.55 1.35 1.26 1.22 1.15 1.02 0.89 0.81 0.74 0.69 0.68
0.44 0.45 0.53 0.62 0.72 0.81 0.86 0.86 0.72 0.61 0.62 0.67 0.68 0.69 0.77 0.84 0.87 1.02 1.19 1.42 1.43 1.55 1.63 1.71 1.63 1.47 1.35 1.27 1.23 1.23 1.33 1.53 1.59 1.57 1.48 1.29 1.17 1.00 0.88 0.84 0.83 0.81 0.76
0.38 0.40 0.44 0.42 0.45 0.50 0.66 0.66 0.55 0.45 0.50 0.60 0.68 0.70 0.70 0.71 0.74 0.78 0.82 1.07 1.25 1.37 1.48 1.52 1.58 1.46 1.34 1.26 1.33 1.34 1.29 1.34 1.45 1.47 1.35 1.41 1.37 1.19 1.04 0.92 0.97 1.03 0.99
0.34 0.36 0.32 0.28 0.30 0.34 0.39 0.38 0.44 0.45 0.48 0.52 0.61 0.70 0.75 0.73 0.78 0.87 0.84 0.87 0.96 1.03 1.16 1.29 1.34 1.31 1.29 1.25 1.33 1.35 1.31 1.25 1.17 1.25 1.25 1.31 1.37 1.27 1.13 1.03 1.03 1.01 0.99
0.29 0.37 0.32 0.30 0.33 0.30 0.32 0.37 0.40 0.43 0.56 0.62 0.61 0.62 0.73 0.79 0.85 1.00 0.99 1.06 1.00 0.89 0.88 0.93 1.08 1.15 1.11 1.21 1.30 1.47 1.52 1.38 1.28 1.31 1.28 1.20 1.16 1.12 1.06 1.06 1.06 0.93 0.88
0.21 0.20 0.24 0.39 0.39 0.35 0.43 0.41 0.35 0.42 0.55 0.62 0.58 0.61 0.73 0.83 0.97 1.08 1.13 1.16 1.05 0.95 0.98 1.06 1.14 1.21 1.23 1.30 1.36 1.43 1.48 1.47 1.38 1.36 1.27 1.13 1.04 1.03 1.03 1.01 0.99 0.99 0.93
0.12 0.12 0.16 0.29 0.36 0.37 0.37 0.28 0.28 0.41 0.53 0.61 0.62 0.64 0.85 0.86 0.94 1.00 1.06 1.18 1.20 1.06 0.98 1.01 1.06 1.09 1.08 1.17 1.36 1.38 1.48 1.56 1.43 1.35 1.26 1.13 1.09 1.17 1.22 1.09 0.96 0.91 0.89